Wright-Patt AFB, OH

6:42 AM EST on December 11, 2017 (GMT -0500)
Wright-Patterson Air Force Base

Weather History for KFFO - April, 2014

Change the Weather History Date:

Wednesday, April 16, 2014

  Actual Average Record
Temperature  
Mean Temperature 36 °F -  
Max Temperature 49 °F 62 °F 82 °F (2002)
Min Temperature 23 °F 41 °F 23 °F (2014)
Degree Days  
Heating Degree Days 30    
Moisture  
Dew Point 19 °F    
Average Humidity 49    
Maximum Humidity 82    
Minimum Humidity 34    
Precipitation  
Precipitation 0.00 in - - ()
Sea Level Pressure  
Sea Level Pressure 30.38 in    
Wind  
Wind Speed 6 mph (ESE)    
Max Wind Speed 15 mph    
Max Gust Speed 17 mph    
Visibility 10 miles    
Events      
Averages and records for this station are not official NWS values.
T = Trace of Precipitation, MM = Missing Value Source: NWS Daily Summary

Daily Weather History Graph

Daily Weather History Graph

Search for Another Location

Airport or City:

Trip Planner

Search our weather history database for the weather conditions in past years. The results will help you decide how hot, cold, wet, or windy it might be!

Date:

Astronomy

Apr. 16, 2014 Rise Set
Actual Time 6:57 AM EDT 8:15 PM EDT
Civil Twilight 6:29 AM EDT 8:43 PM EDT
Nautical Twilight 5:55 AM EDT 9:17 PM EDT
Astronomical Twilight 5:20 AM EDT 9:52 PM EDT
Moon 9:58 PM EDT (4/16) 7:44 AM EDT (4/16)
Length of Visible Light 14h 14m
Length of Day
13h 18m
Full, 98% of the Moon is Illuminated
Apr 16
Full
Apr 22
Last Quarter
Apr 29
New
May 6
First Quarter
May 14
Full

Hourly Weather History & Observations

Time (EDT) Temp. Windchill Dew Point Humidity Pressure Visibility Wind Dir Wind Speed Gust Speed Precip Events Conditions
12:58 AM 28.9 °F 23.9 °F 15.8 °F 58% 30.30 in 10.0 mi NNE 4.6 mph - N/A   Clear
1:58 AM 28.2 °F - 15.3 °F 58% 30.30 in 10.0 mi NE 2.3 mph - N/A   Clear
2:58 AM 27.5 °F - 14.5 °F 58% 30.32 in 10.0 mi Calm Calm - N/A   Clear
3:58 AM 25.5 °F 21.3 °F 16.3 °F 68% 30.35 in 10.0 mi SSW 3.5 mph - N/A   Clear
4:58 AM 24.3 °F - 16.5 °F 72% 30.38 in 10.0 mi Calm Calm - N/A   Clear
5:58 AM 24.4 °F - 18.9 °F 79% 30.40 in 10.0 mi Calm Calm - N/A   Clear
6:58 AM 23.5 °F - 18.9 °F 82% 30.43 in 10.0 mi ESE 1.2 mph - N/A   Clear
7:58 AM 27.0 °F - 20.1 °F 75% 30.44 in 10.0 mi ESE 2.3 mph - N/A   Clear
8:58 AM 31.8 °F 24.6 °F 14.2 °F 48% 30.46 in 10.0 mi East 8.1 mph - N/A   Clear
9:58 AM 34.9 °F 28.3 °F 11.3 °F 38% 30.47 in 10.0 mi ESE 8.1 mph - N/A   Clear
10:58 AM 37.4 °F 30.8 °F 12.4 °F 36% 30.45 in 10.0 mi East 9.2 mph - N/A   Clear
11:58 AM 39.0 °F 32.3 °F 14.7 °F 37% 30.47 in 10.0 mi SE 10.4 mph - N/A   Clear
12:58 PM 41.2 °F 34.5 °F 17.2 °F 38% 30.45 in 10.0 mi East 11.5 mph 17.3 mph N/A   Clear
1:58 PM 43.2 °F 37.0 °F 18.9 °F 38% 30.43 in 10.0 mi ESE 11.5 mph - N/A   Clear
2:58 PM 45.1 °F 39.1 °F 21.0 °F 38% 30.40 in 10.0 mi ESE 12.7 mph - N/A   Clear
3:55 PM 46.6 °F - 21.4 °F 37% 30.38 in 10.0 mi ESE 8.1 mph - N/A   Partly Cloudy
3:58 PM 46.6 °F - 21.4 °F 37% 30.38 in 10.0 mi East 13.8 mph - N/A   Clear
4:58 PM 48.2 °F - 20.8 °F 34% 30.35 in 10.0 mi East 15.0 mph 17.3 mph N/A   Clear
5:58 PM 48.6 °F - 21.2 °F 34% 30.34 in 10.0 mi SE 12.7 mph - N/A   Clear
6:58 PM 47.5 °F - 20.8 °F 35% 30.32 in 10.0 mi ESE 11.5 mph - N/A   Clear
7:58 PM 46.2 °F 41.7 °F 21.9 °F 38% 30.31 in 10.0 mi East 9.2 mph - N/A   Clear
8:58 PM 44.2 °F 40.3 °F 24.1 °F 45% 30.31 in 10.0 mi East 6.9 mph - N/A   Clear
9:58 PM 43.0 °F 37.7 °F 23.9 °F 47% 30.31 in 10.0 mi East 9.2 mph - N/A   Clear
10:58 PM 42.1 °F 37.7 °F 23.9 °F 49% 30.33 in 10.0 mi East 6.9 mph - N/A   Clear
11:58 PM 39.4 °F 34.5 °F 24.1 °F 54% 30.33 in 10.0 mi East 6.9 mph - N/A   Clear